Time,TemperatureF,DewpointF,PressureIn,WindDirection,WindDirectionDegrees,WindSpeedMPH,WindSpeedGustMPH,Humidity,HourlyPrecipIn,Conditions,Clouds,dailyrainin,SolarRadiationWatts/m^2,SoftwareType,DateUTC
2013-04-22 00:00:00,68.1,68.1,30.10,NNW,338,0.0,0.0,100,0.00,,,0.00,0,Wunderground v.1.15,2013-04-22 10:00:00,
2013-04-22 00:09:00,68.0,68.0,30.10,NNW,338,0.0,0.0,100,0.00,,,0.00,0,Wunderground v.1.15,2013-04-22 10:09:00,
2013-04-22 00:14:00,68.0,68.0,30.10,NNW,338,0.0,2.0,100,0.00,,,0.00,0,Wunderground v.1.15,2013-04-22 10:14:00,
2013-04-22 00:19:00,68.0,68.0,30.10,NNW,338,1.0,2.0,100,0.00,,,0.00,0,Wunderground v.1.15,2013-04-22 10:19:00,
2013-04-22 00:25:00,68.0,68.0,30.10,NNW,338,2.0,2.0,100,0.00,,,0.00,0,Wunderground v.1.15,2013-04-22 10:25:00,
2013-04-22 00:30:00,68.2,68.2,30.10,NNW,338,1.0,1.0,100,0.00,,,0.00,0,Wunderground v.1.15,2013-04-22 10:30:00,
2013-04-22 00:40:00,68.3,68.0,30.10,NNW,338,0.0,0.0,99,0.00,,,0.00,0,Wunderground v.1.15,2013-04-22 10:40:00,
2013-04-22 00:45:00,68.3,68.0,30.09,NNW,338,0.0,0.0,99,0.00,,,0.00,0,Wunderground v.1.15,2013-04-22 10:45:00,
2013-04-22 00:50:00,68.3,68.0,30.09,NNW,338,0.0,0.0,99,0.00,,,0.00,0,Wunderground v.1.15,2013-04-22 10:50:00,
2013-04-22 01:00:00,68.1,67.8,30.09,NNW,338,0.0,0.0,99,0.00,,,0.00,0,Wunderground v.1.15,2013-04-22 11:00:00,
2013-04-22 01:10:00,67.7,67.4,30.09,NNW,338,0.0,0.0,99,0.00,,,0.00,0,Wunderground v.1.15,2013-04-22 11:10:00,
2013-04-22 01:15:00,67.4,67.1,30.09,NNW,338,1.0,2.0,99,0.00,,,0.00,0,Wunderground v.1.15,2013-04-22 11:15:00,
2013-04-22 01:24:00,67.1,67.1,30.08,NNW,338,3.0,3.0,100,0.00,,,0.00,0,Wunderground v.1.15,2013-04-22 11:24:00,
2013-04-22 01:29:00,66.9,66.9,30.08,NNW,338,2.0,2.0,100,0.00,,,0.00,0,Wunderground v.1.15,2013-04-22 11:29:00,
2013-04-22 01:34:00,66.8,66.8,30.08,NNW,338,2.0,2.0,100,0.00,,,0.00,0,Wunderground v.1.15,2013-04-22 11:34:00,
2013-04-22 01:39:00,66.8,66.8,30.08,NNW,338,2.0,3.0,100,0.00,,,0.00,0,Wunderground v.1.15,2013-04-22 11:39:00,
2013-04-22 01:44:00,66.7,66.7,30.07,NNW,338,2.0,3.0,100,0.00,,,0.00,0,Wunderground v.1.15,2013-04-22 11:44:00,
2013-04-22 01:54:00,66.3,66.3,30.07,NNW,338,1.0,3.0,100,0.00,,,0.00,0,Wunderground v.1.15,2013-04-22 11:54:00,
2013-04-22 02:00:00,66.1,66.1,30.07,NNW,338,1.0,3.0,100,0.00,,,0.00,0,Wunderground v.1.15,2013-04-22 12:00:00,
2013-04-22 02:09:00,65.9,65.9,30.07,NNW,338,1.0,1.0,100,0.00,,,0.00,0,Wunderground v.1.15,2013-04-22 12:09:00,
2013-04-22 02:14:00,65.7,65.7,30.06,NNW,338,0.0,1.0,100,0.00,,,0.00,0,Wunderground v.1.15,2013-04-22 12:14:00,
2013-04-22 02:19:00,65.6,65.6,30.06,NNW,338,0.0,0.0,100,0.00,,,0.00,0,Wunderground v.1.15,2013-04-22 12:19:00,
2013-04-22 02:24:00,65.5,65.5,30.06,NNW,338,0.0,0.0,100,0.00,,,0.00,0,Wunderground v.1.15,2013-04-22 12:24:00,
2013-04-22 02:30:00,65.4,65.4,30.06,NNW,338,0.0,0.0,100,0.00,,,0.00,0,Wunderground v.1.15,2013-04-22 12:30:00,
2013-04-22 02:35:00,65.2,65.2,30.06,NNW,338,0.0,0.0,100,0.00,,,0.00,0,Wunderground v.1.15,2013-04-22 12:35:00,
2013-04-22 02:40:00,65.1,65.1,30.05,NNW,338,0.0,0.0,100,0.00,,,0.00,0,Wunderground v.1.15,2013-04-22 12:40:00,
2013-04-22 02:45:00,65.2,65.2,30.05,NNW,338,1.0,3.0,100,0.00,,,0.00,0,Wunderground v.1.15,2013-04-22 12:45:00,
2013-04-22 02:54:00,65.3,65.3,30.05,NNW,338,2.0,3.0,100,0.00,,,0.00,0,Wunderground v.1.15,2013-04-22 12:54:00,
2013-04-22 03:00:00,65.4,65.4,30.05,NNW,338,2.0,2.0,100,0.00,,,0.00,0,Wunderground v.1.15,2013-04-22 13:00:00,
2013-04-22 03:10:00,65.6,65.6,30.05,NNW,338,1.0,2.0,100,0.00,,,0.00,0,Wunderground v.1.15,2013-04-22 13:10:00,
2013-04-22 03:15:00,65.8,65.8,30.05,NNW,338,0.0,2.0,100,0.00,,,0.00,0,Wunderground v.1.15,2013-04-22 13:15:00,
2013-04-22 03:20:00,66.0,66.0,30.05,NNW,338,1.0,2.0,100,0.00,,,0.00,0,Wunderground v.1.15,2013-04-22 13:20:00,
2013-04-22 03:29:00,66.4,66.4,30.05,NNW,338,3.0,3.0,100,0.00,,,0.00,0,Wunderground v.1.15,2013-04-22 13:29:00,
2013-04-22 03:34:00,66.6,66.6,30.05,NNW,338,2.0,3.0,100,0.00,,,0.00,0,Wunderground v.1.15,2013-04-22 13:34:00,
2013-04-22 03:39:00,66.8,66.8,30.04,NNW,338,1.0,2.0,100,0.00,,,0.00,0,Wunderground v.1.15,2013-04-22 13:39:00,
2013-04-22 03:44:00,66.8,66.8,30.04,NNW,338,1.0,3.0,100,0.00,,,0.00,0,Wunderground v.1.15,2013-04-22 13:44:00,
2013-04-22 03:49:00,66.9,66.9,30.04,NNW,338,3.0,3.0,100,0.00,,,0.00,0,Wunderground v.1.15,2013-04-22 13:49:00,
2013-04-22 03:54:00,67.0,67.0,30.04,NNW,338,2.0,3.0,100,0.00,,,0.00,0,Wunderground v.1.15,2013-04-22 13:54:00,
2013-04-22 04:00:00,66.9,66.6,30.04,NNW,338,1.0,2.0,99,0.00,,,0.00,0,Wunderground v.1.15,2013-04-22 14:00:00,
2013-04-22 04:09:00,66.6,66.3,30.05,NNW,338,2.0,2.0,99,0.00,,,0.00,0,Wunderground v.1.15,2013-04-22 14:09:00,
2013-04-22 04:14:00,66.6,66.3,30.05,NNW,338,1.0,2.0,99,0.00,,,0.00,0,Wunderground v.1.15,2013-04-22 14:14:00,
2013-04-22 04:24:00,66.4,66.1,30.05,NNW,338,2.0,4.0,99,0.00,,,0.00,0,Wunderground v.1.15,2013-04-22 14:24:00,
2013-04-22 04:29:00,66.2,65.9,30.05,NNW,338,1.0,3.0,99,0.00,,,0.00,0,Wunderground v.1.15,2013-04-22 14:29:00,
2013-04-22 04:35:00,65.9,65.6,30.05,NNW,338,1.0,3.0,99,0.00,,,0.00,0,Wunderground v.1.15,2013-04-22 14:35:00,
2013-04-22 04:40:00,65.7,65.4,30.05,NNW,338,1.0,1.0,99,0.00,,,0.00,0,Wunderground v.1.15,2013-04-22 14:40:00,
2013-04-22 04:45:00,65.6,65.3,30.06,NNW,338,0.0,2.0,99,0.00,,,0.00,0,Wunderground v.1.15,2013-04-22 14:45:00,
2013-04-22 04:50:00,65.4,65.1,30.05,NNW,338,1.0,3.0,99,0.00,,,0.00,0,Wunderground v.1.15,2013-04-22 14:50:00,
2013-04-22 05:00:00,65.0,65.0,30.06,NNW,338,0.0,0.0,100,0.00,,,0.00,0,Wunderground v.1.15,2013-04-22 15:00:00,
2013-04-22 05:10:00,64.9,64.9,30.06,NNW,338,0.0,0.0,100,0.00,,,0.00,0,Wunderground v.1.15,2013-04-22 15:10:00,
2013-04-22 05:19:00,65.1,65.1,30.06,NNW,338,0.0,0.0,100,0.00,,,0.00,0,Wunderground v.1.15,2013-04-22 15:19:00,
2013-04-22 05:24:00,65.2,65.2,30.07,NNW,338,0.0,3.0,100,0.00,,,0.00,0,Wunderground v.1.15,2013-04-22 15:24:00,
2013-04-22 05:29:00,65.3,65.3,30.07,NNW,338,2.0,3.0,100,0.00,,,0.00,0,Wunderground v.1.15,2013-04-22 15:29:00,
2013-04-22 05:34:00,65.4,65.4,30.07,NNW,338,3.0,3.0,100,0.00,,,0.00,0,Wunderground v.1.15,2013-04-22 15:34:00,
2013-04-22 05:39:00,65.5,65.5,30.07,NNW,338,2.0,2.0,100,0.00,,,0.00,0,Wunderground v.1.15,2013-04-22 15:39:00,
2013-04-22 05:44:00,65.7,65.7,30.07,NNW,338,2.0,2.0,100,0.00,,,0.00,0,Wunderground v.1.15,2013-04-22 15:44:00,
2013-04-22 05:50:00,65.8,65.8,30.07,NNW,338,2.0,2.0,100,0.00,,,0.00,0,Wunderground v.1.15,2013-04-22 15:50:00,
2013-04-22 05:55:00,65.8,65.8,30.07,NNW,338,0.0,2.0,100,0.00,,,0.00,0,Wunderground v.1.15,2013-04-22 15:55:00,
2013-04-22 06:00:00,66.0,66.0,30.07,NNW,338,0.0,3.0,100,0.00,,,0.00,0,Wunderground v.1.15,2013-04-22 16:00:00,
2013-04-22 06:09:00,66.3,66.0,30.08,NNW,338,3.0,3.0,99,0.00,,,0.00,11,Wunderground v.1.15,2013-04-22 16:09:00,
2013-04-22 06:15:00,66.4,66.1,30.08,NNW,338,2.0,3.0,99,0.00,,,0.00,18,Wunderground v.1.15,2013-04-22 16:15:00,
2013-04-22 06:20:00,66.4,66.1,30.08,NNW,338,2.0,2.0,99,0.00,,,0.00,28,Wunderground v.1.15,2013-04-22 16:20:00,
2013-04-22 06:25:00,66.4,66.1,30.08,NNW,338,2.0,2.0,99,0.00,,,0.00,46,Wunderground v.1.15,2013-04-22 16:25:00,
2013-04-22 06:30:00,66.4,66.1,30.09,NNW,338,1.0,1.0,99,0.00,,,0.00,56,Wunderground v.1.15,2013-04-22 16:30:00,
2013-04-22 06:39:00,66.6,66.3,30.09,NNW,338,0.0,0.0,99,0.00,,,0.00,60,Wunderground v.1.15,2013-04-22 16:39:00,
2013-04-22 06:44:00,66.9,66.6,30.09,NNW,338,0.0,0.0,99,0.00,,,0.00,65,Wunderground v.1.15,2013-04-22 16:44:00,
2013-04-22 06:54:00,67.3,67.0,30.10,NNW,338,0.0,0.0,99,0.00,,,0.00,91,Wunderground v.1.15,2013-04-22 16:54:00,
2013-04-22 07:00:00,67.6,67.3,30.10,NNW,338,0.0,0.0,99,0.00,,,0.00,123,Wunderground v.1.15,2013-04-22 17:00:00,
2013-04-22 07:09:00,68.4,67.8,30.10,NNW,338,0.0,0.0,98,0.00,,,0.00,197,Wunderground v.1.15,2013-04-22 17:09:00,
2013-04-22 07:14:00,68.9,68.3,30.11,NNW,338,0.0,0.0,98,0.00,,,0.00,172,Wunderground v.1.15,2013-04-22 17:14:00,
2013-04-22 07:19:00,69.3,68.4,30.11,NNW,338,0.0,0.0,97,0.00,,,0.00,113,Wunderground v.1.15,2013-04-22 17:19:00,
2013-04-22 07:24:00,69.6,68.1,30.11,NNW,338,0.0,0.0,95,0.00,,,0.00,102,Wunderground v.1.15,2013-04-22 17:24:00,
2013-04-22 07:29:00,69.9,68.4,30.11,NNW,338,0.0,0.0,95,0.00,,,0.00,118,Wunderground v.1.15,2013-04-22 17:29:00,
2013-04-22 07:35:00,70.2,68.7,30.11,NNW,338,0.0,0.0,95,0.00,,,0.00,153,Wunderground v.1.15,2013-04-22 17:35:00,
2013-04-22 07:40:00,70.6,69.4,30.11,NNW,338,0.0,0.0,96,0.00,,,0.00,216,Wunderground v.1.15,2013-04-22 17:40:00,
2013-04-22 07:45:00,71.1,69.6,30.12,NNW,338,0.0,0.0,95,0.00,,,0.00,186,Wunderground v.1.15,2013-04-22 17:45:00,
2013-04-22 07:50:00,71.4,69.3,30.12,NNW,338,0.0,0.0,93,0.00,,,0.00,165,Wunderground v.1.15,2013-04-22 17:50:00,
2013-04-22 08:00:00,71.6,68.5,30.12,NNW,338,0.0,0.0,90,0.00,,,0.00,165,Wunderground v.1.15,2013-04-22 18:00:00,
2013-04-22 08:09:00,72.0,68.6,30.12,NNW,338,1.0,1.0,89,0.00,,,0.00,227,Wunderground v.1.15,2013-04-22 18:09:00,
2013-04-22 08:15:00,72.3,69.2,30.12,NNW,339,1.0,1.0,90,0.00,,,0.00,272,Wunderground v.1.15,2013-04-22 18:15:00,
2013-04-22 08:20:00,72.6,69.2,30.12,NNW,339,1.0,1.0,89,0.00,,,0.00,267,Wunderground v.1.15,2013-04-22 18:20:00,
2013-04-22 08:25:00,72.7,68.9,30.12,NNW,339,1.0,2.0,88,0.00,,,0.00,257,Wunderground v.1.15,2013-04-22 18:25:00,
2013-04-22 08:30:00,73.0,69.2,30.12,NNW,341,1.0,3.0,88,0.00,,,0.00,243,Wunderground v.1.15,2013-04-22 18:30:00,
2013-04-22 08:39:00,73.2,69.1,30.12,NNW,341,2.0,2.0,87,0.00,,,0.00,220,Wunderground v.1.15,2013-04-22 18:39:00,
2013-04-22 08:44:00,73.2,68.8,30.12,NNW,341,2.0,2.0,86,0.00,,,0.00,241,Wunderground v.1.15,2013-04-22 18:44:00,
2013-04-22 08:49:00,73.4,69.3,30.12,NNW,341,1.0,1.0,87,0.00,,,0.00,279,Wunderground v.1.15,2013-04-22 18:49:00,
2013-04-22 08:54:00,73.6,69.2,30.12,NNW,341,0.0,1.0,86,0.00,,,0.00,325,Wunderground v.1.15,2013-04-22 18:54:00,
2013-04-22 09:00:00,73.8,69.0,30.12,NNW,341,0.0,0.0,85,0.00,,,0.00,366,Wunderground v.1.15,2013-04-22 19:00:00,
2013-04-22 09:09:00,74.3,69.1,30.12,NNW,346,1.0,3.0,84,0.00,,,0.00,376,Wunderground v.1.15,2013-04-22 19:09:00,
2013-04-22 09:15:00,74.6,69.4,30.12,NNW,346,1.0,3.0,84,0.00,,,0.00,510,Wunderground v.1.15,2013-04-22 19:15:00,
2013-04-22 09:25:00,75.2,69.7,30.12,NNW,345,0.0,0.0,83,0.00,,,0.00,399,Wunderground v.1.15,2013-04-22 19:25:00,
2013-04-22 09:30:00,75.4,69.5,30.12,NNW,346,0.0,0.0,82,0.00,,,0.00,543,Wunderground v.1.15,2013-04-22 19:30:00,
2013-04-22 09:35:00,75.7,69.8,30.12,NNW,345,0.0,0.0,82,0.00,,,0.00,343,Wunderground v.1.15,2013-04-22 19:35:00,
2013-04-22 09:40:00,75.9,69.6,30.12,NNW,346,1.0,1.0,81,0.00,,,0.00,846,Wunderground v.1.15,2013-04-22 19:40:00,
2013-04-22 09:45:00,76.2,69.6,30.12,NNW,348,1.0,1.0,80,0.00,,,0.00,835,Wunderground v.1.15,2013-04-22 19:45:00,
2013-04-22 09:54:00,76.2,69.9,30.12,NE,46,1.0,2.0,81,0.00,,,0.00,473,Wunderground v.1.15,2013-04-22 19:54:00,
2013-04-22 10:00:00,76.2,70.7,30.12,East,96,3.0,3.0,83,0.00,,,0.00,928,Wunderground v.1.15,2013-04-22 20:00:00,
2013-04-22 10:09:00,76.6,71.0,30.12,East,97,2.0,2.0,83,0.00,,,0.00,250,Wunderground v.1.15,2013-04-22 20:09:00,
2013-04-22 10:14:00,76.5,70.6,30.12,SW,222,2.0,6.0,82,0.00,,,0.00,265,Wunderground v.1.15,2013-04-22 20:14:00,
2013-04-22 10:19:00,75.9,70.4,30.12,South,173,3.0,3.0,83,0.00,,,0.00,374,Wunderground v.1.15,2013-04-22 20:19:00,
2013-04-22 10:24:00,75.7,70.5,30.12,SSE,168,4.0,4.0,84,0.00,,,0.00,830,Wunderground v.1.15,2013-04-22 20:24:00,
2013-04-22 10:30:00,76.0,70.8,30.12,SSE,165,4.0,4.0,84,0.00,,,0.00,979,Wunderground v.1.15,2013-04-22 20:30:00,
2013-04-22 10:34:00,76.7,71.1,30.12,SE,136,3.0,4.0,83,0.00,,,0.00,754,Wunderground v.1.15,2013-04-22 20:34:00,
2013-04-22 10:40:00,76.6,70.3,30.12,SE,142,4.0,5.0,81,0.00,,,0.00,1134,Wunderground v.1.15,2013-04-22 20:40:00,
2013-04-22 10:45:00,76.7,70.8,30.12,SSE,162,5.0,7.0,82,0.00,,,0.00,1083,Wunderground v.1.15,2013-04-22 20:45:00,
2013-04-22 10:50:00,76.7,70.4,30.12,SE,135,5.0,5.0,81,0.00,,,0.00,1088,Wunderground v.1.15,2013-04-22 20:50:00,
2013-04-22 11:00:00,77.2,70.5,30.12,SSE,148,5.0,5.0,80,0.00,,,0.00,577,Wunderground v.1.15,2013-04-22 21:00:00,
2013-04-22 11:10:00,77.8,71.1,30.11,SSE,154,4.0,4.0,80,0.00,,,0.00,1280,Wunderground v.1.15,2013-04-22 21:10:00,
2013-04-22 11:19:00,77.5,70.5,30.11,ESE,103,5.0,5.0,79,0.00,,,0.00,1206,Wunderground v.1.15,2013-04-22 21:19:00,
2013-04-22 11:24:00,77.4,70.4,30.11,SE,138,5.0,5.0,79,0.00,,,0.00,628,Wunderground v.1.15,2013-04-22 21:24:00,
2013-04-22 11:29:00,77.3,70.3,30.11,ENE,66,5.0,5.0,79,0.00,,,0.00,591,Wunderground v.1.15,2013-04-22 21:29:00,
2013-04-22 11:35:00,77.5,68.9,30.11,SE,132,4.0,5.0,75,0.00,,,0.00,557,Wunderground v.1.15,2013-04-22 21:35:00,
2013-04-22 11:40:00,77.5,69.7,30.10,ESE,113,4.0,5.0,77,0.00,,,0.00,654,Wunderground v.1.15,2013-04-22 21:40:00,
2013-04-22 11:45:00,77.2,69.8,30.10,SSE,163,4.0,5.0,78,0.00,,,0.00,526,Wunderground v.1.15,2013-04-22 21:45:00,
2013-04-22 11:54:00,77.1,69.7,30.10,SSE,156,4.0,7.0,78,0.00,,,0.00,803,Wunderground v.1.15,2013-04-22 21:54:00,
2013-04-22 12:00:00,77.3,69.9,30.10,SSE,151,3.0,3.0,78,0.00,,,0.00,420,Wunderground v.1.15,2013-04-22 22:00:00,
2013-04-22 12:10:00,77.8,70.8,30.09,South,187,4.0,4.0,79,0.00,,,0.00,1232,Wunderground v.1.15,2013-04-22 22:10:00,
2013-04-22 12:15:00,78.0,71.0,30.09,South,184,4.0,4.0,79,0.00,,,0.00,608,Wunderground v.1.15,2013-04-22 22:15:00,
2013-04-22 12:24:00,78.2,70.8,30.08,SSE,161,5.0,9.0,78,0.00,,,0.00,527,Wunderground v.1.15,2013-04-22 22:24:00,
2013-04-22 12:29:00,78.1,71.8,30.08,SE,145,5.0,5.0,81,0.00,,,0.00,606,Wunderground v.1.15,2013-04-22 22:29:00,
2013-04-22 12:34:00,77.6,71.7,30.08,SSE,153,5.0,12.0,82,0.00,,,0.00,1074,Wunderground v.1.15,2013-04-22 22:34:00,
2013-04-22 12:40:00,77.0,71.4,30.08,SE,146,6.0,7.0,83,0.00,,,0.00,387,Wunderground v.1.15,2013-04-22 22:40:00,
2013-04-22 12:45:00,76.8,71.6,30.08,SW,215,6.0,7.0,84,0.00,,,0.00,1162,Wunderground v.1.15,2013-04-22 22:45:00,
2013-04-22 12:54:00,77.1,72.2,30.07,SSE,156,4.0,9.0,85,0.00,,,0.00,1252,Wunderground v.1.15,2013-04-22 22:54:00,
2013-04-22 13:00:00,76.9,72.0,30.07,South,169,6.0,6.0,85,0.00,,,0.00,373,Wunderground v.1.15,2013-04-22 23:00:00,
2013-04-22 13:09:00,76.1,71.3,30.06,SE,126,5.0,5.0,85,0.00,,,0.00,373,Wunderground v.1.15,2013-04-22 23:09:00,
2013-04-22 13:19:00,75.7,70.9,30.05,SSE,155,4.0,4.0,85,0.00,,,0.00,336,Wunderground v.1.15,2013-04-22 23:19:00,
2013-04-22 13:24:00,75.8,71.0,30.05,SSE,147,4.0,4.0,85,0.00,,,0.00,522,Wunderground v.1.15,2013-04-22 23:24:00,
2013-04-22 13:29:00,76.0,70.8,30.05,South,175,4.0,4.0,84,0.00,,,0.00,408,Wunderground v.1.15,2013-04-22 23:29:00,
2013-04-22 13:34:00,76.1,71.3,30.05,South,184,5.0,5.0,85,0.00,,,0.00,339,Wunderground v.1.15,2013-04-22 23:34:00,
2013-04-22 13:39:00,76.2,71.4,30.05,SSE,165,4.0,4.0,85,0.00,,,0.00,425,Wunderground v.1.15,2013-04-22 23:39:00,
2013-04-22 13:45:00,76.5,71.3,30.04,SE,144,4.0,4.0,84,0.00,,,0.00,355,Wunderground v.1.15,2013-04-22 23:45:00,
2013-04-22 13:50:00,76.6,71.0,30.04,SSE,159,4.0,4.0,83,0.00,,,0.00,993,Wunderground v.1.15,2013-04-22 23:50:00,
2013-04-22 13:55:00,76.5,70.9,30.04,South,183,4.0,5.0,83,0.00,,,0.00,265,Wunderground v.1.15,2013-04-22 23:55:00,
2013-04-22 14:00:00,75.9,70.7,30.04,SE,144,5.0,5.0,84,0.00,,,0.00,287,Wunderground v.1.15,2013-04-23 00:00:00,
2013-04-22 14:10:00,75.6,71.1,30.04,SSW,200,4.0,4.0,86,0.00,,,0.00,346,Wunderground v.1.15,2013-04-23 00:10:00,
2013-04-22 14:15:00,75.6,71.1,30.03,SSE,155,3.0,4.0,86,0.00,,,0.00,322,Wunderground v.1.15,2013-04-23 00:15:00,
2013-04-22 14:24:00,75.9,71.4,30.03,SSE,159,2.0,4.0,86,0.00,,,0.00,241,Wunderground v.1.15,2013-04-23 00:24:00,
2013-04-22 14:29:00,75.7,70.9,30.03,SSE,159,2.0,4.0,85,0.00,,,0.00,311,Wunderground v.1.15,2013-04-23 00:29:00,
2013-04-22 14:34:00,75.7,70.9,30.03,South,176,2.0,6.0,85,0.00,,,0.00,373,Wunderground v.1.15,2013-04-23 00:34:00,
2013-04-22 14:39:00,75.9,71.4,30.03,South,178,2.0,4.0,86,0.00,,,0.00,350,Wunderground v.1.15,2013-04-23 00:39:00,
2013-04-22 14:45:00,76.1,71.3,30.03,SSE,162,3.0,5.0,85,0.00,,,0.00,301,Wunderground v.1.15,2013-04-23 00:45:00,
2013-04-22 14:50:00,75.9,70.7,30.03,SSE,157,4.0,5.0,84,0.00,,,0.00,410,Wunderground v.1.15,2013-04-23 00:50:00,
2013-04-22 15:00:00,75.8,71.0,30.02,SSE,159,4.0,5.0,85,0.00,,,0.00,279,Wunderground v.1.15,2013-04-23 01:00:00,
2013-04-22 15:10:00,75.4,70.6,30.02,SSE,150,4.0,4.0,85,0.00,,,0.00,207,Wunderground v.1.15,2013-04-23 01:10:00,
2013-04-22 15:19:00,75.3,70.8,30.03,South,170,3.0,4.0,86,0.00,,,0.00,229,Wunderground v.1.15,2013-04-23 01:19:00,
2013-04-22 15:24:00,75.2,70.7,30.02,SSE,159,4.0,5.0,86,0.00,,,0.00,188,Wunderground v.1.15,2013-04-23 01:24:00,
2013-04-22 15:29:00,75.0,70.9,30.02,South,183,3.0,3.0,87,0.00,,,0.00,185,Wunderground v.1.15,2013-04-23 01:29:00,
2013-04-22 15:35:00,74.9,71.1,30.02,South,182,3.0,3.0,88,0.00,,,0.00,255,Wunderground v.1.15,2013-04-23 01:35:00,
2013-04-22 15:40:00,75.0,71.2,30.02,South,178,2.0,5.0,88,0.00,,,0.00,671,Wunderground v.1.15,2013-04-23 01:40:00,
2013-04-22 15:45:00,75.3,71.2,30.02,South,178,3.0,5.0,87,0.00,,,0.00,185,Wunderground v.1.15,2013-04-23 01:45:00,
2013-04-22 15:50:00,75.3,71.2,30.02,South,179,2.0,2.0,87,0.00,,,0.00,178,Wunderground v.1.15,2013-04-23 01:50:00,
2013-04-22 15:55:00,75.2,71.1,30.02,SSE,158,2.0,2.0,87,0.00,,,0.00,195,Wunderground v.1.15,2013-04-23 01:55:00,
2013-04-22 16:00:00,75.0,71.2,30.02,SSE,165,2.0,2.0,88,0.00,,,0.00,204,Wunderground v.1.15,2013-04-23 02:00:00,
2013-04-22 16:10:00,74.8,71.0,30.02,South,177,2.0,3.0,88,0.00,,,0.00,158,Wunderground v.1.15,2013-04-23 02:10:00,
2013-04-22 16:15:00,74.8,71.3,30.02,South,178,2.0,4.0,89,0.00,,,0.00,153,Wunderground v.1.15,2013-04-23 02:15:00,
2013-04-22 16:24:00,74.8,71.3,30.02,South,178,1.0,2.0,89,0.00,,,0.00,139,Wunderground v.1.15,2013-04-23 02:24:00,
2013-04-22 16:29:00,74.8,71.7,30.02,South,179,1.0,4.0,90,0.00,,,0.00,151,Wunderground v.1.15,2013-04-23 02:29:00,
2013-04-22 16:34:00,74.8,71.7,30.02,South,179,1.0,4.0,90,0.00,,,0.00,134,Wunderground v.1.15,2013-04-23 02:34:00,
2013-04-22 16:39:00,74.6,71.5,30.02,South,179,2.0,4.0,90,0.00,,,0.00,135,Wunderground v.1.15,2013-04-23 02:39:00,
2013-04-22 16:45:00,74.5,71.4,30.02,South,173,2.0,4.0,90,0.00,,,0.00,156,Wunderground v.1.15,2013-04-23 02:45:00,
2013-04-22 16:50:00,74.4,71.3,30.02,South,173,1.0,1.0,90,0.00,,,0.00,171,Wunderground v.1.15,2013-04-23 02:50:00,
2013-04-22 16:55:00,74.4,71.6,30.02,South,172,1.0,2.0,91,0.00,,,0.00,156,Wunderground v.1.15,2013-04-23 02:55:00,
2013-04-22 17:00:00,74.4,71.6,30.03,South,189,2.0,5.0,91,0.00,,,0.00,148,Wunderground v.1.15,2013-04-23 03:00:00,
2013-04-22 17:10:00,74.1,71.3,30.03,South,170,3.0,3.0,91,0.00,,,0.00,113,Wunderground v.1.15,2013-04-23 03:10:00,
2013-04-22 17:15:00,74.0,71.2,30.03,South,170,2.0,4.0,91,0.00,,,0.00,114,Wunderground v.1.15,2013-04-23 03:15:00,
2013-04-22 17:24:00,73.8,71.3,30.03,SSE,165,3.0,3.0,92,0.00,,,0.00,84,Wunderground v.1.15,2013-04-23 03:24:00,
2013-04-22 17:29:00,73.7,71.5,30.03,SSE,165,1.0,1.0,93,0.00,,,0.00,77,Wunderground v.1.15,2013-04-23 03:29:00,
2013-04-22 17:34:00,73.7,71.5,30.03,SSE,165,1.0,4.0,93,0.00,,,0.00,53,Wunderground v.1.15,2013-04-23 03:34:00,
2013-04-22 17:39:00,73.6,71.4,30.03,SSE,165,1.0,1.0,93,0.00,,,0.00,54,Wunderground v.1.15,2013-04-23 03:39:00,
2013-04-22 17:44:00,73.5,71.4,30.04,SSE,165,1.0,1.0,93,0.00,,,0.00,51,Wunderground v.1.15,2013-04-23 03:44:00,
2013-04-22 17:50:00,73.5,71.7,30.04,SSE,165,0.0,2.0,94,0.00,,,0.00,49,Wunderground v.1.15,2013-04-23 03:50:00,
2013-04-22 17:55:00,73.4,71.6,30.04,SSE,165,0.0,2.0,94,0.00,,,0.00,35,Wunderground v.1.15,2013-04-23 03:55:00,
2013-04-22 18:00:00,73.4,71.6,30.04,SSE,165,1.0,2.0,94,0.00,,,0.00,25,Wunderground v.1.15,2013-04-23 04:00:00,
2013-04-22 18:04:00,73.3,71.5,30.04,SSE,165,1.0,2.0,94,0.00,,,0.00,23,Wunderground v.1.15,2013-04-23 04:04:00,
2013-04-22 18:10:00,73.3,71.5,30.04,SSE,165,0.0,3.0,94,0.00,,,0.00,18,Wunderground v.1.15,2013-04-23 04:10:00,
2013-04-22 18:15:00,73.2,71.4,30.04,SSE,165,1.0,3.0,94,0.00,,,0.00,12,Wunderground v.1.15,2013-04-23 04:15:00,
2013-04-22 18:20:00,73.2,71.7,30.04,SSE,165,2.0,3.0,95,0.00,,,0.00,9,Wunderground v.1.15,2013-04-23 04:20:00,
2013-04-22 18:25:00,73.0,71.2,30.04,SSE,165,2.0,3.0,94,0.00,,,0.00,7,Wunderground v.1.15,2013-04-23 04:25:00,
2013-04-22 18:30:00,73.0,71.5,30.05,SSE,165,1.0,1.0,95,0.00,,,0.00,5,Wunderground v.1.15,2013-04-23 04:30:00,
2013-04-22 18:39:00,72.9,71.4,30.05,SSE,165,1.0,1.0,95,0.00,,,0.00,0,Wunderground v.1.15,2013-04-23 04:39:00,
2013-04-22 18:44:00,72.9,71.4,30.05,SSE,165,1.0,1.0,95,0.00,,,0.00,0,Wunderground v.1.15,2013-04-23 04:44:00,
2013-04-22 18:49:00,72.7,71.2,30.05,SSE,165,0.0,0.0,95,0.00,,,0.00,0,Wunderground v.1.15,2013-04-23 04:49:00,
2013-04-22 18:54:00,72.6,71.1,30.06,SSE,165,0.0,0.0,95,0.00,,,0.00,0,Wunderground v.1.15,2013-04-23 04:54:00,
2013-04-22 19:00:00,72.5,71.0,30.06,SSE,165,0.0,0.0,95,0.00,,,0.00,0,Wunderground v.1.15,2013-04-23 05:00:00,
2013-04-22 19:09:00,72.3,70.8,30.06,SSE,165,0.0,0.0,95,0.00,,,0.00,0,Wunderground v.1.15,2013-04-23 05:09:00,
2013-04-22 19:14:00,72.3,70.8,30.06,SSE,165,0.0,0.0,95,0.00,,,0.00,0,Wunderground v.1.15,2013-04-23 05:14:00,
2013-04-22 19:20:00,72.2,70.7,30.07,SSE,165,0.0,0.0,95,0.00,,,0.00,0,Wunderground v.1.15,2013-04-23 05:20:00,
2013-04-22 19:25:00,72.3,70.8,30.07,SSE,165,0.0,0.0,95,0.00,,,0.00,0,Wunderground v.1.15,2013-04-23 05:25:00,
2013-04-22 19:34:00,72.2,70.7,30.07,SSE,165,0.0,0.0,95,0.00,,,0.00,0,Wunderground v.1.15,2013-04-23 05:34:00,
2013-04-22 19:39:00,72.1,70.6,30.07,SSE,165,0.0,0.0,95,0.00,,,0.00,0,Wunderground v.1.15,2013-04-23 05:39:00,
2013-04-22 19:44:00,72.0,70.5,30.07,SSE,165,0.0,0.0,95,0.00,,,0.00,0,Wunderground v.1.15,2013-04-23 05:44:00,
2013-04-22 19:49:00,72.0,70.5,30.07,SSE,165,0.0,0.0,95,0.00,,,0.00,0,Wunderground v.1.15,2013-04-23 05:49:00,
2013-04-22 19:54:00,71.9,70.4,30.07,SSE,165,0.0,0.0,95,0.00,,,0.00,0,Wunderground v.1.15,2013-04-23 05:54:00,
2013-04-22 20:00:00,71.8,70.6,30.07,SSE,165,0.0,0.0,96,0.00,,,0.00,0,Wunderground v.1.15,2013-04-23 06:00:00,
2013-04-22 20:09:00,71.7,70.5,30.08,SSE,165,0.0,2.0,96,0.00,,,0.00,0,Wunderground v.1.15,2013-04-23 06:09:00,
2013-04-22 20:14:00,71.6,70.4,30.08,SSE,165,1.0,2.0,96,0.00,,,0.00,0,Wunderground v.1.15,2013-04-23 06:14:00,
2013-04-22 20:19:00,71.5,70.3,30.08,SSE,165,1.0,1.0,96,0.00,,,0.00,0,Wunderground v.1.15,2013-04-23 06:19:00,
2013-04-22 20:25:00,71.3,70.1,30.08,SSE,165,1.0,1.0,96,0.00,,,0.00,0,Wunderground v.1.15,2013-04-23 06:25:00,
2013-04-22 20:30:00,71.1,69.9,30.08,SSE,165,0.0,0.0,96,0.00,,,0.00,0,Wunderground v.1.15,2013-04-23 06:30:00,
2013-04-22 20:35:00,70.9,69.7,30.08,SSE,165,0.0,2.0,96,0.00,,,0.00,0,Wunderground v.1.15,2013-04-23 06:35:00,
2013-04-22 20:40:00,70.5,69.6,30.09,SSE,165,1.0,1.0,97,0.00,,,0.00,0,Wunderground v.1.15,2013-04-23 06:40:00,
2013-04-22 20:49:00,70.0,69.1,30.09,SSE,165,1.0,1.0,97,0.00,,,0.00,0,Wunderground v.1.15,2013-04-23 06:49:00,
2013-04-22 20:54:00,69.7,68.8,30.09,SSE,165,0.0,1.0,97,0.00,,,0.00,0,Wunderground v.1.15,2013-04-23 06:54:00,
2013-04-22 21:00:00,69.5,68.6,30.09,SSE,165,0.0,2.0,97,0.00,,,0.00,0,Wunderground v.1.15,2013-04-23 07:00:00,
2013-04-22 21:10:00,68.9,68.3,30.10,SSE,165,1.0,1.0,98,0.00,,,0.00,0,Wunderground v.1.15,2013-04-23 07:10:00,
2013-04-22 21:19:00,68.5,67.6,30.10,SSW,212,2.0,3.0,97,0.00,,,0.00,0,Wunderground v.1.15,2013-04-23 07:19:00,
2013-04-22 21:24:00,68.5,67.3,30.10,West,264,2.0,3.0,96,0.00,,,0.00,0,Wunderground v.1.15,2013-04-23 07:24:00,
2013-04-22 21:29:00,68.6,67.4,30.10,West,269,2.0,4.0,96,0.00,,,0.00,0,Wunderground v.1.15,2013-04-23 07:29:00,
2013-04-22 21:34:00,68.6,67.1,30.10,West,269,2.0,4.0,95,0.00,,,0.00,0,Wunderground v.1.15,2013-04-23 07:34:00,
2013-04-22 21:40:00,68.7,67.2,30.10,West,269,1.0,1.0,95,0.00,,,0.00,0,Wunderground v.1.15,2013-04-23 07:40:00,
2013-04-22 21:45:00,68.7,67.2,30.10,West,269,1.0,3.0,95,0.00,,,0.00,0,Wunderground v.1.15,2013-04-23 07:45:00,
2013-04-22 21:54:00,68.8,67.3,30.11,West,269,1.0,1.0,95,0.00,,,0.00,0,Wunderground v.1.15,2013-04-23 07:54:00,
2013-04-22 22:00:00,68.9,67.4,30.11,West,269,1.0,1.0,95,0.00,,,0.00,0,Wunderground v.1.15,2013-04-23 08:00:00,
2013-04-22 22:09:00,68.7,67.2,30.11,West,269,1.0,3.0,95,0.00,,,0.00,0,Wunderground v.1.15,2013-04-23 08:09:00,
2013-04-22 22:14:00,68.5,67.0,30.11,West,269,2.0,3.0,95,0.00,,,0.00,0,Wunderground v.1.15,2013-04-23 08:14:00,
2013-04-22 22:19:00,68.4,66.9,30.11,West,269,2.0,2.0,95,0.00,,,0.00,0,Wunderground v.1.15,2013-04-23 08:19:00,
2013-04-22 22:24:00,68.5,67.0,30.11,West,269,2.0,3.0,95,0.00,,,0.00,0,Wunderground v.1.15,2013-04-23 08:24:00,
2013-04-22 22:29:00,68.4,66.9,30.11,West,269,2.0,2.0,95,0.00,,,0.00,0,Wunderground v.1.15,2013-04-23 08:29:00,
2013-04-22 22:35:00,68.2,66.7,30.11,West,269,1.0,2.0,95,0.00,,,0.00,0,Wunderground v.1.15,2013-04-23 08:35:00,
2013-04-22 22:40:00,68.1,66.9,30.12,West,269,0.0,0.0,96,0.00,,,0.00,0,Wunderground v.1.15,2013-04-23 08:40:00,
2013-04-22 22:45:00,68.1,66.9,30.12,West,269,1.0,2.0,96,0.00,,,0.00,0,Wunderground v.1.15,2013-04-23 08:45:00,
2013-04-22 22:54:00,68.1,66.9,30.12,West,269,0.0,1.0,96,0.00,,,0.00,0,Wunderground v.1.15,2013-04-23 08:54:00,
2013-04-22 23:00:00,68.1,66.9,30.12,West,269,0.0,0.0,96,0.00,,,0.00,0,Wunderground v.1.15,2013-04-23 09:00:00,
2013-04-22 23:09:00,68.1,66.6,30.11,West,269,1.0,2.0,95,0.00,,,0.00,0,Wunderground v.1.15,2013-04-23 09:09:00,
2013-04-22 23:14:00,68.0,66.5,30.11,West,269,1.0,2.0,95,0.00,,,0.00,0,Wunderground v.1.15,2013-04-23 09:14:00,
2013-04-22 23:20:00,68.0,66.5,30.11,West,269,0.0,0.0,95,0.00,,,0.00,0,Wunderground v.1.15,2013-04-23 09:20:00,
2013-04-22 23:25:00,68.0,66.2,30.11,West,269,0.0,0.0,94,0.00,,,0.00,0,Wunderground v.1.15,2013-04-23 09:25:00,
2013-04-22 23:30:00,68.1,66.3,30.11,West,269,0.0,0.0,94,0.00,,,0.00,0,Wunderground v.1.15,2013-04-23 09:30:00,
2013-04-22 23:35:00,68.1,66.6,30.11,West,269,0.0,1.0,95,0.00,,,0.00,0,Wunderground v.1.15,2013-04-23 09:35:00,
2013-04-22 23:44:00,67.8,66.3,30.11,West,269,2.0,2.0,95,0.00,,,0.00,0,Wunderground v.1.15,2013-04-23 09:44:00,
2013-04-22 23:49:00,67.8,66.3,30.11,West,269,1.0,2.0,95,0.00,,,0.00,0,Wunderground v.1.15,2013-04-23 09:49:00,
2013-04-22 23:54:00,67.9,66.1,30.10,West,269,1.0,4.0,94,0.00,,,0.00,0,Wunderground v.1.15,2013-04-23 09:54:00,